Flag for U.S.A. Weather past 2 weeks in Pomona, California, U.S.A.

Now
62 °F

Scattered clouds.


Feels Like: 62 °F
Forecast: 43 / 63 °F
Wind: 7 mph from West

Location: Chino Airport

Current Time: Mar 3, 2015 at 12:36:08 PM

Latest Report: Mar 3, 2015 at 11:53 AM


Visibility: 10 mi

Pressure: 29.94 "Hg

Humidity: 43%

Dew point: 39 °F

Location of PomonaLocation

Historic Weather in Pomona — Graph

°F

Pomona temperature yesterday

Maximum temperature yesterday: 59 °F (at 2:53 PM)
Minimum temperature yesterday: 46 °F (at 11:53 PM)
Average temperature yesterday: 51 °F

Past Weeks' High & Low Weather Summary

 TemperatureHumidityPressure
High77 °F (Feb 18, 12:53 PM)97% (Feb 18, 1:53 AM)30.24 "Hg (Feb 18, 1:53 AM)
Low37 °F (Mar 3, 4:53 AM)20% (Feb 24, 2:53 PM)29.76 "Hg (Feb 27, 6:53 PM)
Average56 °F73%29.98 "Hg
* Reported Feb 16 10:53 AM — Mar 3 10:53 AM, Pomona, Weather by CustomWeather, © 2015

Note: Actual official high and low records may vary slightly from our data, if they occured in-between our weather recording intervals... More about our weather records

Advertising

Pomona weather history for previous 24 hours

 ConditionsComfort  
Time TempWeatherWind HumidityBarometerVisibility
10:53 AM
Tue, Mar 3
59 °FPassing clouds.3 mph48%29.97 "Hg10 mi
9:53 AM56 °FPassing clouds.No wind60%29.98 "Hg10 mi
8:53 AM53 °FScattered clouds.5 mph69%29.99 "Hg10 mi
7:53 AM47 °FPassing clouds.3 mph83%29.98 "Hg10 mi
6:53 AM40 °FPassing clouds.No wind97%29.96 "Hg10 mi
5:53 AM39 °FClear.5 mph93%29.95 "Hg7 mi
4:53 AM37 °FFog.3 mph93%29.94 "Hg4 mi
3:53 AM41 °FClear.No wind93%29.94 "Hg8 mi
2:53 AM41 °FFog.3 mph89%29.96 "Hg6 mi
1:53 AM42 °FClear.No wind89%29.97 "Hg10 mi
12:53 AM46 °FClear.No wind86%29.99 "Hg10 mi
11:53 PM
Mon, Mar 2
46 °FClear.No wind86%30.00 "Hg10 mi
10:53 PM47 °FClear.No wind83%29.99 "Hg10 mi
9:53 PM48 °FPassing clouds.No wind80%29.98 "Hg10 mi
8:53 PM47 °FClear.No wind80%29.98 "Hg10 mi
7:53 PM50 °FPassing clouds.5 mph71%29.97 "Hg10 mi
6:53 PM51 °FPassing clouds.7 mph69%29.96 "Hg10 mi
5:53 PM56 °FPassing clouds.5 mph60%29.94 "Hg10 mi
4:53 PM58 °FBroken clouds.8 mph51%29.92 "Hg10 mi
3:53 PM59 °FPartly sunny.7 mph51%29.91 "Hg10 mi
2:53 PM59 °FPartly sunny.7 mph54%29.91 "Hg10 mi
1:53 PM58 °FScattered clouds.6 mph56%29.90 "Hg10 mi
12:53 PM54 °FBroken clouds.No wind67%29.92 "Hg10 mi
Weather by CustomWeather, © 2015

See weather overviewHow to use our weather pages